Kingman, AZ

7:47 AM MST on March 23, 2017 (GMT -0700)
Kingman

Weather History for KIGM - October, 2012

Change the Weather History Date:

Friday, October 19, 2012

  Actual Average Record
Temperature  
Mean Temperature 64 °F 62 °F  
Max Temperature 86 °F 76 °F 98 °F (1915)
Min Temperature 42 °F 47 °F 27 °F (1908)
Degree Days  
Heating Degree Days 1 5  
Month to date heating degree days 22 50  
Since 1 July heating degree days 22 56  
Cooling Degree Days 0 1  
Month to date cooling degree days 90 57  
Year to date cooling degree days 2294 2083  
Growing Degree Days 14 (Base 50)    
Moisture  
Dew Point 21 °F    
Average Humidity 27    
Maximum Humidity 45    
Minimum Humidity 8    
Precipitation  
Precipitation 0.00 in 0.02 in 0.72 in (1971)
Month to date precipitation 0.36 0.38  
Year to date precipitation 6.88 6.67  
Sea Level Pressure  
Sea Level Pressure 29.87 in    
Wind  
Wind Speed 2 mph (ESE)    
Max Wind Speed 5 mph    
Max Gust Speed 6 mph    
Visibility 10 miles    
Events      
T = Trace of Precipitation, MM = Missing Value Source: NWS Daily Summary

Daily Weather History Graph

Daily Weather History Graph

Search for Another Location

Airport or City:

Trip Planner

Search our weather history database for the weather conditions in past years. The results will help you decide how hot, cold, wet, or windy it might be!

Date:

Astronomy

Oct. 19, 2012 Rise Set
Actual Time 6:45 AM MST 5:54 PM MST
Civil Twilight 6:20 AM MST 6:20 PM MST
Nautical Twilight 5:50 AM MST 6:50 PM MST
Astronomical Twilight 5:21 AM MST 7:19 PM MST
Moon 11:25 AM MST (10/19) 9:44 PM MST (10/19)
Length of Visible Light 12h 00m
Length of Day
11h 09m
Waxing Crescent, 24% of the Moon is Illuminated
Oct 19
Waxing Crescent
Oct 21
First Quarter
Oct 29
Full
Nov 6
Last Quarter
Nov 13
New

Hourly Weather History & Observations

Time (MST) Temp. Dew Point Humidity Pressure Visibility Wind Dir Wind Speed Gust Speed Precip Events Conditions
12:51 AM 54.0 °F 18.0 °F 24% 29.93 in 10.0 mi Calm Calm - N/A   Clear
1:51 AM 51.1 °F 19.9 °F 29% 29.93 in 10.0 mi Calm Calm - N/A   Clear
2:51 AM 48.0 °F 21.9 °F 36% 29.93 in 10.0 mi Calm Calm - N/A   Clear
3:51 AM 46.9 °F 21.9 °F 37% 29.91 in 10.0 mi SSE 3.5 mph - N/A   Clear
4:51 AM 48.0 °F 21.0 °F 34% 29.91 in 10.0 mi Calm Calm - N/A   Clear
5:51 AM 48.9 °F 19.9 °F 32% 29.92 in 10.0 mi Calm Calm - N/A   Clear
6:51 AM 42.1 °F 23.0 °F 47% 29.96 in 10.0 mi Calm Calm - N/A   Clear
7:51 AM 57.0 °F 23.0 °F 27% 29.95 in 10.0 mi ESE 4.6 mph - N/A   Clear
8:51 AM 66.0 °F 21.0 °F 18% 29.95 in 10.0 mi Calm Calm - N/A   Clear
9:51 AM 71.1 °F 16.0 °F 12% 29.93 in 10.0 mi North 3.5 mph - N/A   Clear
10:51 AM 75.0 °F 17.1 °F 11% 29.91 in 10.0 mi North 5.8 mph - N/A   Clear
11:51 AM 78.1 °F 17.1 °F 10% 29.88 in 10.0 mi NNE 5.8 mph - N/A   Clear
12:51 PM 82.0 °F 16.0 °F 8% 29.85 in 10.0 mi Variable 3.5 mph - N/A   Clear
1:51 PM 84.0 °F 16.0 °F 8% 29.83 in 10.0 mi Calm Calm - N/A   Clear
2:51 PM 84.9 °F 16.0 °F 8% 29.81 in 10.0 mi Calm Calm - N/A   Clear
3:51 PM 84.9 °F 17.1 °F 8% 29.80 in 10.0 mi Calm Calm - N/A   Clear
4:51 PM 82.9 °F 17.1 °F 9% 29.78 in 10.0 mi WSW 4.6 mph - N/A   Clear
5:51 PM 77.0 °F 21.0 °F 12% 29.79 in 10.0 mi Calm Calm - N/A   Clear
6:51 PM 71.1 °F 21.9 °F 16% 29.83 in 10.0 mi Calm Calm - N/A   Clear
7:51 PM 59.0 °F 25.0 °F 27% 29.83 in 10.0 mi SE 3.5 mph - N/A   Clear
8:51 PM 57.9 °F 25.0 °F 28% 29.82 in 10.0 mi SE 9.2 mph - N/A   Unknown
9:51 PM 59.0 °F 26.1 °F 28% 29.81 in 10.0 mi Calm Calm - N/A   Clear
10:51 PM 54.0 °F 27.0 °F 35% 29.80 in 10.0 mi South 3.5 mph - N/A   Clear
11:52 PM 53.1 °F 26.1 °F 35% 29.79 in - Calm Calm - N/A   Unknown